NOAA 16 DEB, 42413

Orbit data source: Space-Track

NOAA 16 DEB, 42413 is space debris in SSO originally from a launch on Thu, 21 Sep 2000 UTC launched from the Air Force Western Test Range (AFWTR). Debris objects in space refer to the collection of defunct objects orbiting the Earth. Examples of debris include non-operational satellites, rocket bodies, and fragments generated from explosions, collisions, or faulty payload assembly.

Loading next visibility...
Identifier
42413, 2000-055TH
Orbit
SSO
Country
Flag of USUS
Related business
Manufacturer
Unknown
Mission
Spacecraft
Bus & Motor
Unknown
Mass
Unknown
Launch date (UTC)
2000-09-21 (26 years ago)
Launch vehicle
Unknown
Launch site
Air Force Western Test Range (AFWTR)
Object type
Payload
Rocket body
Debris
Shape & HBR
Unknown shape, 0.1 m
Radar Cross Section
Medium (>0.1 m² and <1 m²)

Expand to show TLE details & history
Last TLE update: 13 hours ago

TLE from 13 hours ago
0 NOAA 16 DEB
1 42413U 00055TH  26237.27276743  .00004659  00000-0  12456-2 0  9996
2 42413  98.9460  52.0208 0019579 271.1525  88.7424 14.48708045545494
Epoch: 2026-08-25T06:32Z
TLE epoch observation values (Epoch: 2026-08-25T06:32:47.105Z)
Latitude
0.00001°
Longitude
-19.71796°
Altitude
732.539 km
Speed
7.489 km/s
True Right ascension
03h 28m 04s
True Declination
0° 00' 00"
Sunlit
Object was in daylight at epoch
Visualization orbit readout
Latitude
Unknown
Longitude
Unknown
Altitude
Unknown
Speed
Unknown
Apparent Right ascension
Unknown
Apparent Declination
Unknown
Sunlit
N/A
Visualization observer readout
Local Sidereal Time
11:06:54
Azimuth
Unknown
Elevation
Unknown
Doppler factor
Unknown
Orbital elements
Apogee altitude
740.914 km
Perigee altitude
713.092 km
Semi-major axis
7,105.14 km
Eccentricity
0.00196
Inclination
98.946°
RAAN
52.0208°
Arg. of periapsis
271.1525°
True anomaly
88.96672°
Mean anomaly
88.7424°
Eccentric anomaly
88.85456°
Mean motion
3.62397 °/min
Orbital period
99.34 mins
BSTAR
0.0012456
Loading maneuver chart data...
Computing Atmospheric mass density...
Loading historical data...
Loading historical data...
Loading historical data...
Loading historical data...
Loading historical data...
Loading historical data...
Loading historical data...

Documentation

Showing up to 5 results
|